Flag for Austria Weather for the Past 2 Weeks in Bruck an der Leitha, Lower Austria, Austria

Now
51 °F

Light rain. Overcast.


Feels Like: 48 °F
Forecast: 48 / 64 °F
Wind: 9 mph from Northwest

Location: Wien / Schwechat-Flughafen

Current Time: May 4, 2016 at 4:51:59 AM

Latest Report: May 4, 2016 at 4:00 AM


Visibility: 13 mi

Pressure: 30.01 "Hg

Humidity: 91%

Dew Point: 49 °F

Location of Bruck an der LeithaLocation

Historic Weather in Bruck an der Leitha — Graph

°F

Bruck an der Leitha Temperature Yesterday

Maximum temperature yesterday: 62 °F (at 4:00 PM)
Minimum temperature yesterday: 51 °F (at 11:00 PM)
Average temperature yesterday: 56 °F

High & Low Weather Summary for the Past Weeks

 TemperatureHumidityPressure
High65 °F (May 2, 4:00 PM)94% (May 4, 3:00 AM)30.40 "Hg (May 4, 3:00 AM)
Low29 °F (Apr 26, 5:00 AM)28% (Apr 26, 2:00 PM)29.60 "Hg (Apr 26, 6:00 PM)
Average53 °F58%29.98 "Hg
* Reported Apr 19 3:00 AM — May 4 3:00 AM, Bruck an der Leitha, Weather by CustomWeather, © 2016

Note: Actual official high and low records may vary slightly from our data, if they occured in-between our weather recording intervals... More about our weather records

Advertising

Bruck an der Leitha Weather History for the Previous 24 Hours

Scroll right to see more
 ConditionsComfort  
Time TempWeatherWind HumidityBarometerVisibility
3:00 AM
Wed, May 4
51 °FLight rain. Overcast.8 mph94%30.00 "Hg9 mi
2:00 AM51 °FLight rain. Overcast.8 mph93%30.00 "Hg5 mi
11:00 PM
Tue, May 3
51 °FLight rain. Overcast.9 mph91%29.98 "Hg10 mi
10:00 PM52 °FSprinkles. Overcast.9 mph86%29.97 "Hg4 mi
9:00 PM56 °FOvercast.8 mph62%29.94 "Hg18 mi
8:00 PM57 °FOvercast.7 mph66%29.92 "Hg28 mi
7:00 PM59 °FPartly sunny.7 mph62%29.91 "Hg25 mi
6:00 PM60 °FScattered clouds.7 mph55%29.91 "Hg25 mi
5:00 PM60 °FPartly sunny.8 mph60%29.92 "Hg22 mi
4:00 PM62 °FScattered clouds.9 mph54%29.91 "Hg15 mi
3:00 PM59 °FOvercast.8 mph66%29.93 "Hg11 mi
1:00 PM57 °FOvercast.8 mph68%29.97 "Hg15 mi
12:00 PM54 °FLight rain. Overcast.8 mph79%29.98 "Hg9 mi
11:00 AM58 °FPartly sunny.10 mph65%29.98 "Hg14 mi
9:00 AM56 °FOvercast.7 mph68%29.98 "Hg12 mi
8:00 AM54 °FOvercast.6 mph71%29.98 "Hg14 mi
7:00 AM51 °FPartly sunny.5 mph77%29.98 "Hg14 mi
6:00 AM51 °FPartly sunny.5 mph76%29.98 "Hg19 mi
Weather by CustomWeather, © 2016

See weather overviewHow to use our weather pages